Location: Observatory
(52.1446°N, 0.4624°W)
Time: 22:36:37
(UTC+00:00)

ISS - Pass Details

Date: 13 January 2018
Orbit: 402 x 407 km, 51.6° (Epoch: 22 January)

Event Time Altitude Azimuth Distance (km) Brightness Sun altitude
Exits shadow 06:06:27 21° 212° (SSW) 975 -2.1 -17.4°
Drops below altitude 10° 06:08:56 10° 163° (SSE) 1,462 -0.6 -17.0°
Sets 06:11:19 0° 146° (SSE) 2,320 0.8 -16.7°
